Voltar ao catálogo

STARLINK-5771

AtivoComunicaçõesVLEO
NORAD 56023·PAYLOAD·🇺🇸 United States

Lançado Mar 24, 2023 de Cape Canaveral Space Force Station

Loading…

Próximas Passagens (próximas 24 horas)

TLE

AtualizadoSource: CelesTrak SupGP

Época: Sep 15, 2026, 01:27 UTC

1 56023C 23042AP  26258.06090278 -.00021813  00000+0 -78994-3 0  2586
2 56023  43.0011  56.1529 0002440 261.8553  64.6717 15.27592441    17

Acompanhe STARLINK-5771 em tempo real com AllMySat

Download on the App Store